Dewpoint
55 55 55 56 57 57 56 56 55 55 56 55 55 55 54 54 54 53 53 53 53 53 53 54 55 55 52 32 28 30 53 47 35 29 26 25 21 22 16 17 17 16 19 20 19 17 18
55 55 56 57 57 56 55 54 54 55 55 55 55 55 55 54 53 53 53 52 52 53 55 54 55 55 41 26 29 31 30 27 29 28 27 26 25 25 23 22 19 24 22 22 22 22 23
55 55 56 57 57 55 55 54 55 55 55 55 55 55 55 54 53 53 53 53 52 54 54 54 55 52 31 29 31 28 26 28 28 29 28 29 27 24 26 26 27 24 21 22 23 22 23
54 54 56 57 57 55 54 54 55 55 55 54 54 55 55 55 55 55 54 54 55 54 55 55 54 51 29 33 31 26 24 25 29 31 32 31 28 27 26 28 20 17 19 15 22 23 25
53 54 56 57 56 55 55 54 55 55 54 54 54 54 54 54 54 54 54 54 54 55 55 54 51 40 25 36 27 28 27 24 28 30 30 26 27 26 23 21 16 16 8 11 18 24 25
52 53 56 57 56 55 55 54 55 54 54 54 54 53 53 53 53 53 53 54 54 53 50 48 37 29 25 24 27 27 26 28 27 27 26 26 25 20 18 12 8 12 11 14 15 19 23
51 51 55 56 56 56 55 54 54 54 54 54 53 53 52 52 53 53 53 50 37 36 32 28 27 25 24 26 28 28 28 27 25 25 21 25 19 20 22 23 20 18 16 16 16 24 28
52 51 54 56 55 55 55 55 54 54 54 53 53 53 53 53 53 53 53 42 44 41 28 30 27 28 28 28 26 29 30 23 24 20 24 19 21 21 24 23 20 19 17 17 22 25 29
51 50 53 55 55 55 54 54 54 54 54 53 53 53 53 53 53 55 53 51 55 48 27 28 29 26 26 30 31 31 30 26 21 21 21 20 20 22 23 26 25 22 20 24 24 25 28
51 50 53 54 54 54 53 54 54 54 53 53 53 53 53 52 49 51 47 51 56 48 27 24 24 27 27 27 28 32 33 29 26 23 22 22 26 26 25 26 28 22 26 29 27 26 20
51 51 53 53 54 53 53 53 53 53 53 53 52 53 52 52 52 43 50 56 57 50 24 25 25 29 32 28 29 30 34 31 28 27 27 23 26 27 27 27 30 28 32 30 29 26 26
51 52 53 53 53 53 53 53 53 53 53 53 52 53 52 50 56 53 56 55 54 38 22 25 26 28 29 31 30 30 32 32 31 29 28 28 29 30 29 29 29 32 30 30 31 30 27
52 53 53 53 53 53 53 53 52 52 52 52 53 53 53 52 48 58 57 49 33 30 29 23 24 29 30 30 31 31 32 33 29 24 28 27 29 31 33 28 32 29 26 27 29 29 26
53 53 53 53 53 53 53 52 52 52 52 52 52 52 53 54 57 58 53 43 28 29 26 27 28 29 28 30 31 31 29 29 32 30 27 25 26 31 33 32 29 30 30 30 20 25 24
52 53 53 53 53 53 52 52 52 52 52 52 52 53 54 56 58 56 42 40 32 27 26 26 27 26 29 30 29 30 32 30 32 33 29 28 26 32 32 32 32 29 30 31 30 30 31
52 52 52 52 53 52 52 52 52 52 52 52 48 49 50 56 56 52 46 33 29 30 30 27 25 29 28 29 29 30 31 33 32 34 35 32 28 30 31 33 33 31 32 29 30 28 16
52 52 52 52 52 52 52 52 52 51 51 52 51 39 52 56 53 45 40 34 32 35 35 31 31 31 32 31 31 31 31 33 34 33 34 31 30 27 31 31 30 32 31 30 28 30 24
51 51 51 52 52 52 52 51 51 51 51 51 50 40 52 55 41 39 35 33 37 34 36 36 36 34 33 34 33 33 32 33 37 36 31 35 33 26 24 32 34 32 30 29 28 20 29
51 51 51 51 52 52 50 50 51 51 51 49 45 44 50 51 44 45 37 35 35 34 34 34 35 36 36 35 34 34 35 38 38 36 34 35 32 22 23 30 32 31 31 31 31 32 29
51 51 51 51 52 50 50 50 50 51 51 49 44 48 45 44 41 37 36 35 34 36 36 36 35 36 36 35 36 36 36 37 39 38 41 40 32 27 17 19 25 24 24 28 29 32 28
51 51 51 50 50 49 50 50 50 51 51 50 46 45 44 45 42 39 37 35 33 33 35 36 34 34 35 36 34 35 35 36 36 39 40 38 29 31 28 28 27 28 27 26 26 29 29
51 51 50 50 50 49 49 50 50 50 50 48 46 44 42 40 40 38 39 35 33 33 33 33 33 34 32 31 28 30 29 31 29 37 36 37 32 34 30 29 28 29 28 27 28 29 29
51 51 50 50 51 49 49 50 50 50 51 48 48 45 45 38 38 41 39 36 34 37 37 36 36 35 36 33 35 39 39 39 37 35 35 37 37 34 33 31 31 32 30 27 27 30 29
51 51 50 52 51 50 50 50 50 50 51 51 48 46 49 43 42 37 36 36 36 36 37 38 37 41 38 42 41 40 37 37 39 39 39 38 38 36 35 34 29 28 29 28 29 29 28
50 51 51 52 51 51 50 50 50 50 51 51 48 46 46 38 41 37 38 38 38 39 38 38 41 41 43 41 41 40 35 37 36 36 37 38 39 35 32 28 28 27 28 29 28 28 31
50 50 51 51 51 51 50 50 50 50 51 53 51 48 46 40 44 37 38 39 40 41 41 43 43 44 43 45 41 35 33 28 27 30 36 36 38 39 33 30 28 29 29 31 32 28 36
50 50 50 51 51 50 50 50 50 49 50 54 53 52 46 50 41 40 40 40 40 41 41 43 43 44 44 42 37 38 35 32 29 33 33 35 34 33 33 32 31 31 32 33 32 35 40
49 49 49 50 50 50 50 50 50 49 50 53 54 53 50 47 43 43 42 41 40 41 44 44 43 44 44 38 37 39 36 37 33 30 31 31 36 33 33 30 29 32 32 35 38 40 40
49 49 49 49 50 49 49 50 50 49 49 51 52 52 52 50 46 51 50 46 46 41 42 45 42 42 45 43 39 38 34 34 39 34 33 31 34 31 32 34 35 35 37 38 40 40 41
Lifted_Index
6 6 6 5 5 5 5 5 5 5 5 6 6 6 6 6 6 7 7 7 7 6 5 4 4 4 4 3 4 4 4 4 3 3 3 3 3 3 3 3 3 3 4 4 4 4 4
6 6 6 5 5 5 5 5 5 5 5 6 6 6 6 7 7 7 7 7 6 6 5 4 4 4 4 4 4 4 4 4 4 3 3 3 3 3 3 3 3 4 4 4 4 4 4
6 6 5 5 5 5 6 5 5 5 6 6 7 7 7 7 7 7 7 7 6 5 5 4 4 4 4 4 5 5 5 4 4 4 3 4 4 4 3 4 4 4 4 4 4 4 4
6 6 5 5 5 6 6 6 6 6 6 7 7 7 7 7 6 6 6 6 5 5 4 4 4 4 4 4 5 5 6 5 4 4 4 4 4 4 4 4 4 4 4 4 4 4 4
5 5 5 5 6 6 6 6 6 6 6 6 6 6 6 6 6 6 6 5 5 4 4 4 4 4 4 5 5 6 6 5 5 4 4 5 4 4 4 4 4 4 3 3 4 4 4
5 5 5 5 6 6 6 6 6 6 6 6 6 6 5 5 5 5 5 5 4 4 4 4 4 4 5 5 6 6 5 5 4 4 4 4 4 4 4 4 3 3 3 3 4 4 4
5 5 5 6 6 6 6 6 6 6 6 6 5 5 4 4 5 5 4 4 4 4 4 5 5 5 5 5 5 5 5 5 4 4 4 4 4 4 4 4 4 3 3 3 4 4 4
6 5 6 6 6 6 6 6 6 6 6 6 5 4 3 3 4 3 3 2 2 3 4 5 5 5 5 4 4 5 5 5 4 4 4 4 4 4 5 4 4 3 3 3 4 5 4
6 6 6 6 6 7 7 7 6 6 6 6 5 4 3 3 3 2 2 1 2 3 4 5 5 5 5 4 4 4 5 5 4 4 4 4 4 4 5 4 4 4 3 4 4 4 4
7 7 6 6 7 7 7 7 7 6 6 6 5 5 4 3 3 2 2 1 2 2 4 4 5 5 5 4 4 4 5 5 4 4 4 4 4 4 4 4 4 4 4 4 4 3 3
7 7 7 7 7 7 7 7 7 7 6 6 6 5 4 3 3 2 2 2 1 2 2 4 5 5 4 4 4 4 4 4 4 4 4 4 4 4 4 4 4 4 5 4 4 3 2
8 8 7 7 7 7 7 7 7 7 6 6 6 5 4 3 2 2 2 2 1 1 2 4 4 4 4 4 4 4 4 4 3 3 3 4 4 4 4 4 4 4 4 4 3 2 2
7 8 7 7 7 7 7 7 7 6 6 6 5 4 4 3 2 2 2 2 2 2 3 4 4 4 4 4 4 4 4 3 3 3 3 3 3 4 4 4 4 4 3 2 2 1 1
7 7 8 7 7 7 7 7 6 6 5 5 4 4 4 3 3 2 2 2 2 3 4 4 4 4 3 4 4 4 3 3 3 3 3 3 3 3 4 3 3 3 3 2 1 1 1
7 7 8 8 7 7 7 6 6 5 5 4 4 4 3 3 3 3 2 2 3 4 4 4 4 3 3 3 3 3 3 3 4 4 3 3 3 3 3 3 3 3 3 2 2 2 1
7 7 8 8 7 7 7 6 5 4 4 4 4 4 3 4 3 3 2 3 4 4 4 4 3 3 3 3 3 3 3 3 4 4 4 3 3 3 3 3 3 3 3 3 3 2 1
6 7 8 8 7 7 6 6 5 4 3 3 4 4 4 4 3 3 3 4 4 5 4 4 3 3 3 3 3 3 3 3 4 4 4 4 3 3 3 3 3 2 3 3 3 2 2
6 7 7 7 7 7 6 6 5 4 3 3 3 4 4 3 3 3 4 4 4 4 4 4 3 3 3 3 3 3 3 3 4 3 3 3 3 3 3 3 3 2 3 3 3 3 3
6 6 7 7 7 7 6 5 4 4 3 3 3 3 3 3 3 4 4 4 4 4 4 4 4 4 3 3 3 3 3 3 4 3 3 3 3 2 3 3 3 3 3 3 3 3 3
6 6 6 6 6 6 6 5 4 3 3 3 3 3 3 3 4 4 4 4 4 4 4 4 4 4 3 3 3 3 3 3 4 3 3 3 3 3 3 3 4 4 3 3 3 3 3
6 6 6 6 6 6 6 6 5 4 4 4 3 3 3 4 4 4 4 4 4 4 4 4 4 4 4 4 4 3 3 4 4 4 3 3 3 3 4 4 4 4 4 3 3 3 3
6 6 6 6 6 6 6 6 5 4 4 4 3 3 4 4 4 4 3 3 4 4 4 4 4 4 4 4 4 4 4 4 4 4 3 3 3 4 4 4 4 4 4 3 3 3 3
5 5 5 6 6 6 6 6 5 4 4 4 4 4 4 4 4 3 3 4 4 4 4 4 4 4 5 5 4 4 4 4 4 4 3 3 4 4 4 4 4 4 4 4 3 3 3
5 5 5 5 5 5 5 5 5 4 4 4 4 4 3 4 4 3 4 4 4 4 4 4 4 4 4 4 4 4 4 4 4 4 4 4 4 4 4 4 3 3 4 4 4 3 3
5 5 5 5 5 5 5 5 5 4 3 4 4 4 4 4 4 4 4 4 4 4 4 4 5 4 4 4 4 4 4 4 4 4 4 4 4 4 4 3 3 3 4 4 4 4 3
5 5 5 5 5 5 5 5 5 4 3 3 4 4 4 4 4 4 3 4 4 4 4 4 4 4 4 4 4 4 4 4 4 4 5 5 5 4 4 3 3 3 4 4 4 4 3
4 4 5 5 5 4 4 4 5 4 3 3 3 4 4 4 4 4 4 4 4 4 4 4 4 4 4 5 4 4 4 4 4 4 4 4 4 4 4 3 3 4 4 4 4 3 3
4 4 4 5 4 4 4 4 4 4 4 3 3 4 4 4 5 5 5 5 4 4 4 4 4 4 4 4 5 5 4 4 4 4 4 4 4 4 4 3 3 4 4 4 4 4 4
4 4 4 4 4 4 4 4 4 4 4 3 3 4 4 4 4 5 5 5 5 4 4 4 4 4 4 4 5 5 5 5 4 4 4 4 4 4 4 3 3 4 4 4 4 4 4